Weather History for PAFM - April, 2013

Change the Weather History Date:

Sunday, April 21, 2013

  Actual Average Record
Temperature  
Mean Temperature 10 °F -  
Max Temperature 19 °F 29 °F 46 °F (2008)
Min Temperature 1 °F 16 °F -11 °F (1987)
Degree Days  
Heating Degree Days 55    
Moisture  
Dew Point 5 °F    
Average Humidity 78    
Maximum Humidity 92    
Minimum Humidity 63    
Precipitation  
Precipitation 0.00 in - - ()
Sea Level Pressure  
Sea Level Pressure 30.45 in    
Wind  
Wind Speed 1 mph (South)    
Max Wind Speed 7 mph    
Max Gust Speed -    
Visibility 10 miles    
Events      
Averages and records for this station are not official NWS values.
T = Trace of Precipitation, MM = Missing Value Source: NWS Daily Summary

Daily Weather History Graph

Daily Weather History Graph

Search for Another Location

Airport or City:

Trip Planner

Search our weather history database for the weather conditions in past years. The results will help you decide how hot, cold, wet, or windy it might be!

Date:

Astronomy

Apr. 21, 2013 Rise Set
Actual Time 6:18 AM AKDT 10:44 PM AKDT
Civil Twilight 5:05 AM AKDT 11:59 PM AKDT
Nautical Twilight 3:02 AM AKDT 1:57 AM AKDT
Astronomical Twilight Sun does not rise Sun does not rise
Moon 4:59 PM AKDT (4/21) 5:39 AM AKDT (4/21)
Length of Visible Light 18h 53m
Length of Day
16h 25m
Waxing Gibbous, 81% of the Moon is Illuminated
Apr 21
Waxing Gibbous
Apr 25
Full
May 2
Last Quarter
May 9
New
May 17
First Quarter

Hourly Weather History & Observations

Time (AKDT) Temp. Windchill Dew Point Humidity Pressure Visibility Wind Dir Wind Speed Gust Speed Precip Events Conditions
12:16 AM 8.6 °F - 3.2 °F 79% 30.43 in 10.0 mi Calm Calm - N/A   Clear
12:36 AM 8.6 °F - 3.2 °F 79% 30.43 in 10.0 mi Calm Calm - N/A   Clear
12:56 AM 6.8 °F -0.1 °F 3.2 °F 85% 30.43 in 10.0 mi SE 3.5 mph - N/A   Clear
1:16 AM 6.8 °F - 3.2 °F 85% 30.43 in 10.0 mi Calm Calm - N/A   Clear
1:36 AM 6.8 °F - 3.2 °F 85% 30.43 in 10.0 mi Calm Calm - N/A   Clear
1:56 AM 5.0 °F - -0.4 °F 78% 30.43 in 10.0 mi Calm Calm - N/A   Clear
2:16 AM 6.8 °F - 3.2 °F 85% 30.44 in 10.0 mi Calm Calm - N/A   Clear
2:36 AM 6.8 °F - 1.4 °F 79% 30.44 in 10.0 mi Calm Calm - N/A   Clear
2:56 AM 3.2 °F - -0.4 °F 85% 30.44 in 10.0 mi Calm Calm - N/A   Clear
3:16 AM 3.2 °F - -0.4 °F 85% 30.44 in 10.0 mi Calm Calm - N/A   Clear
3:36 AM 3.2 °F - -0.4 °F 85% 30.44 in 10.0 mi Calm Calm - N/A   Clear
3:56 AM 5.0 °F - 1.4 °F 85% 30.44 in 10.0 mi Calm Calm - N/A   Clear
4:16 AM 5.0 °F - 1.4 °F 85% 30.44 in 10.0 mi Calm Calm - N/A   Clear
4:36 AM 3.2 °F - -0.4 °F 85% 30.44 in 10.0 mi Calm Calm - N/A   Clear
4:56 AM 3.2 °F - -0.4 °F 85% 30.44 in 10.0 mi Calm Calm - N/A   Partly Cloudy
5:16 AM 1.4 °F - -0.4 °F 92% 30.44 in 10.0 mi Calm Calm - N/A   Partly Cloudy
5:36 AM 3.2 °F - -0.4 °F 85% 30.44 in 10.0 mi Calm Calm - N/A   Mostly Cloudy
5:56 AM 1.4 °F - -0.4 °F 92% 30.44 in 10.0 mi Calm Calm - N/A   Partly Cloudy
6:16 AM 3.2 °F - -0.4 °F 85% 30.44 in 10.0 mi Calm Calm - N/A   Clear
6:36 AM 3.2 °F - -0.4 °F 85% 30.45 in 10.0 mi Calm Calm - N/A   Clear
6:56 AM 3.2 °F - -0.4 °F 85% 30.44 in 10.0 mi Calm Calm - N/A   Clear
7:16 AM 3.2 °F - -0.4 °F 85% 30.44 in 10.0 mi Calm Calm - N/A   Clear
7:36 AM 3.2 °F - 1.4 °F 92% 30.44 in 10.0 mi Calm Calm - N/A   Clear
7:56 AM 5.0 °F - 1.4 °F 85% 30.44 in 10.0 mi Calm Calm - N/A   Clear
8:16 AM 5.0 °F - 1.4 °F 85% 30.44 in 10.0 mi Calm Calm - N/A   Clear
8:36 AM 6.8 °F - 3.2 °F 85% 30.44 in 10.0 mi Calm Calm - N/A   Clear
8:56 AM 6.8 °F - 3.2 °F 85% 30.44 in 10.0 mi Calm Calm - N/A   Clear
9:16 AM 6.8 °F - 3.2 °F 85% 30.44 in 10.0 mi Calm Calm - N/A   Clear
9:36 AM 6.8 °F - 3.2 °F 85% 30.44 in 10.0 mi Calm Calm - N/A   Clear
9:56 AM 8.6 °F - 6.8 °F 92% 30.44 in 10.0 mi Calm Calm - N/A   Clear
10:16 AM 8.6 °F - 5.0 °F 85% 30.45 in 10.0 mi Calm Calm - N/A   Clear
10:36 AM 8.6 °F - 6.8 °F 92% 30.45 in 10.0 mi Calm Calm - N/A   Clear
10:56 AM 10.4 °F 4.0 °F 8.6 °F 92% 30.45 in 10.0 mi South 3.5 mph - N/A   Clear
11:16 AM 10.4 °F 0.8 °F 6.8 °F 85% 30.45 in 10.0 mi South 5.8 mph - N/A   Clear
11:36 AM 12.2 °F 4.3 °F 6.8 °F 79% 30.45 in 10.0 mi South 4.6 mph - N/A   Clear
11:56 AM 12.2 °F 2.9 °F 6.8 °F 79% 30.46 in 10.0 mi South 5.8 mph - N/A   Clear
12:16 PM 14.0 °F 3.9 °F 6.8 °F 73% 30.46 in 10.0 mi South 6.9 mph - N/A   Clear
12:36 PM 14.0 °F 5.1 °F 6.8 °F 73% 30.46 in 10.0 mi South 5.8 mph - N/A   Clear
12:56 PM 14.0 °F 6.5 °F 6.8 °F 73% 30.47 in 10.0 mi South 4.6 mph - N/A   Clear
1:16 PM 15.8 °F 7.2 °F 6.8 °F 68% 30.47 in 10.0 mi South 5.8 mph - N/A   Clear
1:36 PM 15.8 °F 8.6 °F 6.8 °F 68% 30.47 in 10.0 mi South 4.6 mph - N/A   Clear
1:56 PM 15.8 °F 8.6 °F 6.8 °F 68% 30.47 in 10.0 mi South 4.6 mph - N/A   Clear
2:16 PM 15.8 °F 8.6 °F 6.8 °F 68% 30.46 in 10.0 mi South 4.6 mph - N/A   Clear
2:36 PM 15.8 °F 10.2 °F 6.8 °F 68% 30.46 in 10.0 mi SSE 3.5 mph - N/A   Clear
2:56 PM 15.8 °F 8.6 °F 8.6 °F 73% 30.47 in 10.0 mi South 4.6 mph - N/A   Clear
3:16 PM 17.6 °F 10.7 °F 8.6 °F 68% 30.47 in 10.0 mi SSE 4.6 mph - N/A   Clear
3:36 PM 17.6 °F 10.7 °F 8.6 °F 68% 30.46 in 10.0 mi SSE 4.6 mph - N/A   Clear
3:56 PM 17.6 °F 10.7 °F 6.8 °F 63% 30.46 in 10.0 mi South 4.6 mph - N/A   Clear
4:16 PM 17.6 °F 12.3 °F 8.6 °F 68% 30.46 in 10.0 mi South 3.5 mph - N/A   Clear
4:36 PM 17.6 °F 10.7 °F 8.6 °F 68% 30.46 in 10.0 mi South 4.6 mph - N/A   Clear
4:56 PM 17.6 °F 9.3 °F 8.6 °F 68% 30.46 in 10.0 mi South 5.8 mph - N/A   Clear
5:16 PM 17.6 °F 9.3 °F 8.6 °F 68% 30.46 in 10.0 mi SSE 5.8 mph - N/A   Clear
5:36 PM 17.6 °F 10.7 °F 8.6 °F 68% 30.45 in 10.0 mi South 4.6 mph - N/A   Clear
5:56 PM 17.6 °F 10.7 °F 8.6 °F 68% 30.45 in 10.0 mi South 4.6 mph - N/A   Clear
6:16 PM 19.4 °F 12.8 °F 8.6 °F 63% 30.45 in 10.0 mi South 4.6 mph - N/A   Clear
6:36 PM 19.4 °F 14.3 °F 8.6 °F 63% 30.45 in 10.0 mi SSE 3.5 mph - N/A   Clear
6:56 PM 19.4 °F 14.3 °F 8.6 °F 63% 30.45 in 10.0 mi SE 3.5 mph - N/A   Clear
7:16 PM 19.4 °F - 8.6 °F 63% 30.44 in 10.0 mi Calm Calm - N/A   Clear
7:36 PM 17.6 °F 10.7 °F 8.6 °F 68% 30.44 in 10.0 mi SE 4.6 mph - N/A   Clear
7:56 PM 17.6 °F 10.7 °F 8.6 °F 68% 30.44 in 10.0 mi South 4.6 mph - N/A   Clear
8:16 PM 17.6 °F 10.7 °F 8.6 °F 68% 30.44 in 10.0 mi South 4.6 mph - N/A   Clear
8:36 PM 17.6 °F 12.3 °F 8.6 °F 68% 30.44 in 10.0 mi South 3.5 mph - N/A   Clear
8:56 PM 15.8 °F 10.2 °F 8.6 °F 73% 30.44 in 10.0 mi SE 3.5 mph - N/A   Clear
9:16 PM 15.8 °F 8.6 °F 8.6 °F 73% 30.44 in 10.0 mi South 4.6 mph - N/A   Clear
9:36 PM 15.8 °F - 8.6 °F 73% 30.44 in 10.0 mi Calm Calm - N/A   Clear
9:56 PM 14.0 °F - 8.6 °F 79% 30.44 in 10.0 mi Calm Calm - N/A   Clear
10:16 PM 12.2 °F 6.1 °F 6.8 °F 79% 30.44 in 10.0 mi SE 3.5 mph - N/A   Clear
10:36 PM 12.2 °F - 6.8 °F 79% 30.44 in 10.0 mi Calm Calm - N/A   Clear
10:56 PM 12.2 °F - 6.8 °F 79% 30.44 in 10.0 mi Calm Calm - N/A   Clear
11:16 PM 10.4 °F - 6.8 °F 85% 30.44 in 10.0 mi Calm Calm - N/A   Clear
11:36 PM 10.4 °F - 5.0 °F 79% 30.44 in 10.0 mi Calm Calm - N/A   Clear
11:56 PM 8.6 °F - 5.0 °F 85% 30.45 in 10.0 mi Calm Calm - N/A   Clear